TimeEDT,TemperatureF,Dew PointF,Humidity,Sea Level PressureIn,VisibilityMPH,Wind Direction,Wind SpeedMPH,Gust SpeedMPH,PrecipitationIn,Events,Conditions,WindDirDegrees,DateUTC
12:15 AM,68.0,63.5,85,29.88,10.0,NE,8.1,-,N/A,,Clear,50,2012-10-27 04:15:00
12:35 AM,68.0,63.7,86,29.88,7.0,NE,8.1,-,N/A,,Clear,50,2012-10-27 04:35:00
12:55 AM,67.5,63.7,88,29.87,7.0,NE,6.9,-,N/A,,Clear,40,2012-10-27 04:55:00
1:15 AM,67.3,63.9,89,29.86,7.0,NE,8.1,17.3,N/A,,Clear,40,2012-10-27 05:15:00
1:35 AM,67.1,63.9,89,29.84,7.0,NE,8.1,16.1,N/A,,Clear,50,2012-10-27 05:35:00
1:55 AM,67.1,63.9,89,29.83,7.0,NE,9.2,19.6,N/A,,Clear,40,2012-10-27 05:55:00
2:15 AM,67.1,64.0,90,29.83,7.0,NE,9.2,18.4,N/A,,Clear,50,2012-10-27 06:15:00
2:35 AM,67.1,63.9,89,29.83,7.0,NE,10.4,18.4,N/A,,Clear,40,2012-10-27 06:35:00
2:55 AM,67.1,63.9,89,29.82,7.0,NE,11.5,16.1,N/A,,Clear,50,2012-10-27 06:55:00
3:15 AM,67.1,64.0,90,29.81,7.0,NE,10.4,18.4,N/A,,Clear,50,2012-10-27 07:15:00
3:35 AM,66.7,64.0,91,29.80,7.0,NE,9.2,16.1,N/A,,Clear,50,2012-10-27 07:35:00
3:55 AM,66.7,64.0,91,29.80,7.0,NE,9.2,16.1,N/A,,Clear,50,2012-10-27 07:55:00
4:15 AM,66.7,64.0,91,29.78,7.0,NE,9.2,18.4,N/A,,Clear,50,2012-10-27 08:15:00
4:35 AM,67.1,64.0,90,29.78,7.0,NE,12.7,19.6,N/A,,Clear,50,2012-10-27 08:35:00
4:55 AM,67.1,64.0,90,29.77,7.0,NE,11.5,19.6,N/A,,Clear,50,2012-10-27 08:55:00
5:15 AM,67.1,64.0,90,29.76,7.0,NE,12.7,19.6,N/A,,Clear,40,2012-10-27 09:15:00
5:35 AM,66.9,63.9,90,29.76,7.0,NE,11.5,21.9,N/A,,Clear,50,2012-10-27 09:35:00
5:55 AM,66.7,63.9,90,29.75,7.0,NE,12.7,23.0,N/A,,Clear,50,2012-10-27 09:55:00
6:15 AM,66.9,63.7,89,29.75,7.0,NE,11.5,26.5,N/A,,Mostly Cloudy,50,2012-10-27 10:15:00
6:35 AM,67.1,63.7,89,29.74,7.0,NE,15.0,26.5,N/A,,Mostly Cloudy,50,2012-10-27 10:35:00
6:55 AM,66.9,63.5,89,29.74,7.0,NE,12.7,21.9,N/A,,Scattered Clouds,50,2012-10-27 10:55:00
7:15 AM,66.9,63.5,89,29.74,7.0,NE,12.7,24.2,N/A,,Scattered Clouds,40,2012-10-27 11:15:00
7:55 AM,66.7,63.3,89,29.75,5.0,NE,12.7,27.6,N/A,,Clear,40,2012-10-27 11:55:00
8:15 AM,66.6,63.1,89,29.75,5.0,NE,13.8,21.9,N/A,,Scattered Clouds,40,2012-10-27 12:15:00
8:35 AM,66.6,63.0,88,29.75,5.0,NE,11.5,23.0,N/A,,Scattered Clouds,40,2012-10-27 12:35:00
8:55 AM,66.9,63.0,87,29.75,7.0,NE,13.8,26.5,N/A,,Scattered Clouds,50,2012-10-27 12:55:00
9:15 AM,67.1,63.1,87,29.75,5.0,NE,15.0,24.2,N/A,Rain,Light Rain,50,2012-10-27 13:15:00
9:35 AM,66.9,63.1,88,29.75,5.0,NE,15.0,25.3,N/A,,Light Drizzle,50,2012-10-27 13:35:00
9:55 AM,66.7,62.8,87,29.74,5.0,ENE,12.7,23.0,N/A,,Light Drizzle,60,2012-10-27 13:55:00
10:15 AM,66.7,63.1,88,29.73,5.0,NE,12.7,24.2,N/A,Rain,Rain,50,2012-10-27 14:15:00
10:35 AM,66.6,63.3,89,29.73,4.0,NE,12.7,23.0,N/A,,Light Drizzle,50,2012-10-27 14:35:00
10:55 AM,66.6,63.5,90,29.73,5.0,NE,13.8,23.0,N/A,,Light Drizzle,50,2012-10-27 14:55:00
11:35 AM,66.7,63.5,89,29.72,4.0,NE,15.0,23.0,N/A,,Light Drizzle,50,2012-10-27 15:35:00
11:55 AM,66.7,63.5,89,29.72,4.0,NE,13.8,26.5,N/A,,Light Drizzle,50,2012-10-27 15:55:00
12:15 PM,66.9,63.7,89,29.71,5.0,NE,13.8,24.2,N/A,,Light Drizzle,50,2012-10-27 16:15:00
12:35 PM,67.1,63.5,88,29.71,5.0,NE,12.7,26.5,N/A,Rain,Light Rain,50,2012-10-27 16:35:00
12:55 PM,66.7,63.5,89,29.70,4.0,NE,15.0,24.2,N/A,,Drizzle,40,2012-10-27 16:55:00
1:15 PM,66.6,63.7,90,29.69,4.0,NE,13.8,21.9,N/A,,Light Drizzle,40,2012-10-27 17:15:00
1:35 PM,66.4,63.7,91,29.68,4.0,NE,12.7,23.0,N/A,Rain,Rain,40,2012-10-27 17:35:00
1:55 PM,66.2,63.5,91,29.67,4.0,NE,12.7,23.0,N/A,Rain,Light Rain,40,2012-10-27 17:55:00
2:15 PM,66.0,63.5,92,29.66,4.0,NE,15.0,25.3,N/A,Rain,Light Rain,40,2012-10-27 18:15:00
2:35 PM,65.8,63.5,92,29.66,4.0,NE,12.7,24.2,N/A,Rain,Light Rain,40,2012-10-27 18:35:00
2:55 PM,65.8,63.5,92,29.65,4.0,NE,13.8,24.2,N/A,Rain,Light Rain,40,2012-10-27 18:55:00
3:15 PM,65.8,63.3,92,29.64,4.0,NNE,16.1,27.6,N/A,Rain,Light Rain,30,2012-10-27 19:15:00
3:35 PM,65.7,63.3,92,29.63,3.0,NNE,15.0,31.1,N/A,Rain,Rain,30,2012-10-27 19:35:00
3:55 PM,65.5,63.5,93,29.63,3.0,NNE,15.0,25.3,N/A,Rain,Light Rain,30,2012-10-27 19:55:00
4:15 PM,65.3,63.3,93,29.62,3.0,NNE,13.8,24.2,N/A,Rain,Light Rain,30,2012-10-27 20:15:00
4:35 PM,65.3,63.3,93,29.61,2.5,NNE,16.1,28.8,N/A,Rain,Rain,30,2012-10-27 20:35:00
4:55 PM,65.1,63.3,94,29.60,2.5,NNE,13.8,27.6,N/A,Rain,Rain,30,2012-10-27 20:55:00
5:15 PM,64.9,63.3,94,29.59,2.5,NNE,16.1,31.1,N/A,Rain,Rain,20,2012-10-27 21:15:00
5:35 PM,64.8,63.1,94,29.60,2.5,NNE,15.0,29.9,N/A,Rain,Rain,30,2012-10-27 21:35:00
5:55 PM,64.6,63.0,94,29.61,3.0,NNE,19.6,27.6,0.01,Rain,Rain,30,2012-10-27 21:55:00
6:15 PM,64.4,62.8,94,29.60,3.0,NNE,18.4,27.6,N/A,Rain,Rain,20,2012-10-27 22:15:00
6:35 PM,63.9,62.4,95,29.60,4.0,NNE,17.3,34.5,N/A,Rain,Rain,20,2012-10-27 22:35:00
6:55 PM,63.9,62.2,94,29.60,4.0,NNE,18.4,28.8,N/A,Rain,Light Rain,20,2012-10-27 22:55:00
7:15 PM,63.9,62.2,94,29.60,5.0,NNE,18.4,31.1,N/A,Rain,Light Rain,20,2012-10-27 23:15:00
7:35 PM,64.2,62.2,93,29.60,5.0,North,17.3,32.2,N/A,Rain,Rain,10,2012-10-27 23:35:00
7:55 PM,64.0,62.1,93,29.59,5.0,NNE,18.4,31.1,N/A,Rain,Light Rain,20,2012-10-27 23:55:00
8:15 PM,64.0,61.9,93,29.59,5.0,NNE,18.4,28.8,N/A,Rain,Light Rain,20,2012-10-28 00:15:00
8:35 PM,64.0,62.1,93,29.58,5.0,NNE,19.6,31.1,N/A,Rain,Light Rain,20,2012-10-28 00:35:00
8:55 PM,63.9,61.9,93,29.57,5.0,NNE,18.4,31.1,N/A,Rain,Light Rain,20,2012-10-28 00:55:00
9:15 PM,63.9,61.9,93,29.58,4.0,NNE,17.3,28.8,N/A,Rain,Rain,20,2012-10-28 01:15:00
9:55 PM,63.9,62.2,94,29.57,5.0,NNE,18.4,31.1,N/A,Rain,Light Rain,20,2012-10-28 01:55:00
10:15 PM,64.0,62.6,95,29.56,5.0,NNE,19.6,32.2,N/A,Rain,Light Rain,20,2012-10-28 02:15:00
10:35 PM,64.4,62.6,94,29.57,4.0,NNE,18.4,28.8,N/A,Rain,Light Rain,20,2012-10-28 02:35:00
10:55 PM,64.2,62.6,94,29.57,4.0,NNE,18.4,29.9,N/A,Rain,Light Rain,20,2012-10-28 02:55:00
11:15 PM,64.0,62.6,95,29.56,3.0,NNE,19.6,32.2,N/A,Rain,Rain,20,2012-10-28 03:15:00
11:35 PM,63.9,62.6,96,29.55,3.0,NNE,16.1,28.8,N/A,Rain,Rain,20,2012-10-28 03:35:00